Aérodrome :
LOGIN :

S'inscrire | Disclaimer

   EN    FR    IT 

 










Légende :    VFR   VFR Marginal   IFR   IFR Intensif   IFR Très Intensif
Visi : 
Plafond : 
>= 8 km
>= 3000ft
5 à 8 km
1000 à 3000 ft
1500m à 5 km
500 à 1000 ft
800 à 1500m
200 à 500 ft
< 800m
< 200 ft
Symboles :   Orages  Brouillard  Fortes neiges  Fortes précipitations  Vent > 20 kt
SIGMETs :   Divers  Orages  Givrage  Turbulence  Onde Orograph.  Cendres Volcan.






- Altitude de l'aérodrome : 396 ft


LFOZ - Orléans St Denis

DERNIER METAR :
  • 011000Z AUTO 05006KT CAVOK 09/03 Q1028

METARs EXPIRÉS :
  • 010930Z AUTO 05006KT 9999 FEW007 08/02 Q1028
  • 010900Z AUTO 05005KT CAVOK 07/02 Q1028
  • 010830Z AUTO 06005KT CAVOK 05/01 Q1028
  • 010800Z AUTO 06005KT CAVOK 04/01 Q1028
  • 010730Z AUTO 07004KT CAVOK 03/M00 Q1028

TAF N/A



MET'MAP, la Météo Aéronautique d'un coup d'oeil ! - Copyright ORBIFLY Décembre 2007 - Disclaimer

ORBIFLY MET'MAP TEAM :

Programmation & Développement : Alexandra Zaïnal
Sur une idée originale de : Baudouin d'Aumeries
Assistance à la programmation : Marc-Olivier Méhu
Soutien technique & logistique : Manuel Goepfert

Contact : metmap@orbifly.com




SOURCES & CREDITS :

   NOAA